Tracking 28081 objects as of 26-Sep-2023
HD Live streaming from Space Station
objects crossing your sky now

STARLINK-4342

Track STARLINK-4342 now!
10-day predictions
STARLINK-4342 is classified as:


NORAD ID: 53070
Int'l Code: 2022-077AD
Perigee: 569.4 km
Apogee: 570.9 km
Inclination: 97.7 °
Period: 95.9 minutes
Semi major axis: 6941 km
RCS: Unknown
Launch date: July 11, 2022
Source: United States (US)
Launch site: AIR FORCE WESTERN TEST RANGE (AFWTR)
Your satellite tracking list
Your tracking list is empty




NASA's NSSDC Master Catalog

Two Line Element Set (TLE):
1 53070U 22077AD  23269.06637333 -.00000237  00000-0 -13847-4 0  9997
2 53070  97.6565  88.6867 0001077 125.2326 234.8999 15.01270502 67127
Source of the keplerian elements: AFSPC